Weather History for West Palm Beach, FL

Change the Weather History Date:

Sunday, September 15, 2013

  Actual Average Record
Temperature  
Mean Temperature 81 °F 82 °F  
Max Temperature 88 °F 88 °F 94 °F (1950)
Min Temperature 74 °F 75 °F 65 °F (1918)
Degree Days  
Heating Degree Days 0 0  
Month to date heating degree days 0 0  
Since 1 July heating degree days 0 0  
Cooling Degree Days 16 17  
Month to date cooling degree days 263 255  
Year to date cooling degree days 3134 2961  
Growing Degree Days 30 (Base 50)    
Moisture  
Dew Point 77 °F    
Average Humidity 88    
Maximum Humidity 100    
Minimum Humidity 75    
Precipitation  
Precipitation 1.25 in 0.30 in 2.85 in (1923)
Month to date precipitation 3.08 4.22  
Year to date precipitation 50.70 44.94  
Snow  
Snow 0.00 in - - ()
Month to date snowfall 0.0  
Since 1 July snowfall 0.0  
Since 1 September snowfall 0.0  
Snow Depth 0.00 in    
Sea Level Pressure  
Sea Level Pressure 30.01 in    
Wind  
Wind Speed 7 mph (ESE)    
Max Wind Speed 24 mph    
Max Gust Speed 35 mph    
Visibility 8 miles    
Events Rain , Thunderstorm    
T = Trace of Precipitation, MM = Missing Value Source: NWS Daily Summary

Daily Weather History Graph

Daily Weather History Graph

Search for Another Location

Airport:

Trip Planner

Search our weather history database for the weather conditions in past years. The results will help you decide how hot, cold, wet, or windy it might be!

Date:

Astronomy

Sep. 15, 2013 Rise Set
Actual Time 7:06 AM EDT 7:24 PM EDT
Civil Twilight 6:42 AM EDT 7:47 PM EDT
Nautical Twilight 6:15 AM EDT 8:14 PM EDT
Astronomical Twilight 5:48 AM EDT 8:42 PM EDT
Moon 4:34 PM EDT (9/15) 3:01 AM EDT (9/15)
Length of Visible Light 13h 04m
Length of Day
12h 18m
Waxing Gibbous, 82% of the Moon is Illuminated
Sep 15
Waxing Gibbous
Sep 19
Full
Sep 26
Last Quarter
Oct 4
New
Oct 11
First Quarter

Hourly Weather History & Observations

Time (EDT) Temp. Heat Index Dew Point Humidity Pressure Visibility Wind Dir Wind Speed Gust Speed Precip Events Conditions
12:53 AM 82.6 °F 89.7 °F 75.0 °F 78% 29.98 in 10.0 mi SE 4.6 mph - N/A   Scattered Clouds
1:53 AM 82.9 °F 91.8 °F 77.0 °F 82% 29.97 in 10.0 mi SE 9.2 mph - N/A   Mostly Cloudy
2:53 AM 82.6 °F 89.7 °F 75.0 °F 78% 29.97 in 10.0 mi SE 6.9 mph - N/A   Mostly Cloudy
3:53 AM 79.7 °F - 71.2 °F 75% 29.93 in 10.0 mi East 6.9 mph - N/A   Scattered Clouds
4:53 AM 79.7 °F - 71.2 °F 75% 29.94 in 10.0 mi South 4.6 mph - N/A   Scattered Clouds
5:53 AM 79.3 °F - 73.8 °F 83% 29.95 in 10.0 mi Calm Calm - N/A   Scattered Clouds
6:53 AM 80.1 °F 85.1 °F 75.0 °F 85% 29.97 in 10.0 mi ENE 3.5 mph - N/A   Mostly Cloudy
7:53 AM 82.0 °F 88.6 °F 75.0 °F 79% 29.99 in 10.0 mi ENE 4.6 mph - N/A   Mostly Cloudy
8:53 AM 84.0 °F 93.7 °F 77.0 °F 79% 30.00 in 10.0 mi East 10.4 mph - N/A   Mostly Cloudy
9:53 AM 87.1 °F 101.5 °F 79.0 °F 77% 30.03 in 10.0 mi East 15.0 mph - N/A   Mostly Cloudy
10:53 AM 87.1 °F 101.5 °F 79.0 °F 77% 30.04 in 10.0 mi ENE 15.0 mph - N/A   Mostly Cloudy
11:15 AM 86.0 °F 99.3 °F 78.8 °F 79% 30.04 in 7.0 mi East 13.8 mph - 0.00 in Rain Light Rain
11:53 AM 82.0 °F 91.6 °F 79.0 °F 90% 30.04 in 7.0 mi SE 11.5 mph - 0.01 in Rain Light Rain
12:22 PM 82.4 °F 92.4 °F 78.8 °F 89% 30.04 in 7.0 mi ESE 6.9 mph - 0.00 in   Mostly Cloudy
12:53 PM 82.0 °F 89.4 °F 75.9 °F 82% 30.04 in 7.0 mi SE 8.1 mph - 0.00 in   Mostly Cloudy
1:53 PM 82.0 °F 91.6 °F 79.0 °F 90% 30.01 in 7.0 mi SE 6.9 mph - N/A   Mostly Cloudy
2:03 PM 82.4 °F 92.4 °F 78.8 °F 89% 30.01 in 7.0 mi SSE 5.8 mph - N/A   Mostly Cloudy
2:53 PM 84.0 °F 96.0 °F 79.0 °F 85% 30.00 in 10.0 mi SE 6.9 mph - N/A   Mostly Cloudy
3:32 PM 84.2 °F 96.1 °F 78.8 °F 84% 30.00 in 10.0 mi SSE 8.1 mph - N/A   Mostly Cloudy
3:53 PM 84.0 °F 93.7 °F 77.0 °F 79% 30.00 in 10.0 mi SSE 9.2 mph - N/A   Overcast
4:53 PM 84.9 °F 95.3 °F 77.0 °F 77% 29.98 in 10.0 mi ESE 8.1 mph - N/A   Overcast
5:45 PM 84.2 °F 96.1 °F 78.8 °F 84% 30.00 in 10.0 mi SSE 3.5 mph - N/A   Overcast
5:53 PM 84.9 °F 97.5 °F 79.0 °F 82% 29.99 in 10.0 mi Calm Calm - N/A   Overcast
6:01 PM 84.2 °F 96.1 °F 78.8 °F 84% 30.00 in 10.0 mi East 4.6 mph - N/A Thunderstorm Thunderstorm
6:06 PM 84.2 °F 96.1 °F 78.8 °F 84% 30.02 in 1.0 mi SE 20.7 mph 25.3 mph 0.00 in Rain , Thunderstorm Heavy Thunderstorms and Rain
6:21 PM 75.2 °F - 75.2 °F 100% 30.06 in 0.5 mi South 20.7 mph 27.6 mph 0.13 in Rain , Thunderstorm Heavy Thunderstorms and Rain
6:30 PM 73.4 °F - 73.4 °F 100% 30.04 in 1.0 mi WSW 4.6 mph 34.5 mph 0.57 in Rain , Thunderstorm Heavy Thunderstorms and Rain
6:42 PM 75.2 °F - 75.2 °F 100% 30.05 in 3.0 mi West 3.5 mph - 0.89 in Rain , Thunderstorm Heavy Thunderstorms and Rain
6:53 PM 73.9 °F - 73.9 °F 100% 30.05 in 4.0 mi NW 6.9 mph - 0.98 in Rain , Thunderstorm Thunderstorms and Rain
7:18 PM 75.2 °F - 75.2 °F 100% 30.04 in 10.0 mi North 4.6 mph - 0.07 in Rain , Thunderstorm Light Thunderstorms and Rain
7:53 PM 75.9 °F - 75.9 °F 100% 30.05 in 9.0 mi NNW 3.5 mph - 0.13 in Rain , Thunderstorm Light Thunderstorms and Rain
8:26 PM 77.0 °F - 77.0 °F 100% 30.07 in 10.0 mi NNW 3.5 mph - 0.08 in Rain Light Rain
8:53 PM 77.0 °F - 77.0 °F 100% 30.06 in 10.0 mi NNW 5.8 mph - 0.12 in Rain Light Rain
9:53 PM 77.0 °F - 77.0 °F 100% 30.04 in 10.0 mi North 5.8 mph - 0.01 in   Mostly Cloudy
10:53 PM 78.1 °F - 78.1 °F 100% 30.03 in 10.0 mi NE 3.5 mph - 0.00 in   Mostly Cloudy
11:53 PM 80.1 °F 85.8 °F 77.0 °F 90% 30.03 in 10.0 mi East 9.2 mph - 0.00 in Rain Light Rain